Date String (YYYY-MM-DD hh:mm:ss) UTC,Instrument flags,Ambient pressure (hPa),Sample flow (lpm),Bypass flow (lpm),Sample temperature (°C),Ambient temperature (°C),ASC tube jacket temperature (°C),LED temperature (°C),Box temperature (°C),Sample RH (%),Span deviation,Mass concentration (μg/m³),Mass concentration (μg/m³),Mass concentration (μg/m³)
DateTimeUTC,F1_M11,P_M11,Q1_M11,Q2_M11,T1_M11,T2_M11,T3_M11,T4_M11,T5_M11,U1_M11,ZSPAN_M11,X2_M11,X0_M11,X1_M11
2023-04-09 13:00:00,,0834.3,4.99,0.00,23.0,21.4,00.0,31.4,24.6,15.7,0000.0,0003.22,0008.14,0001.89
2023-04-09 13:01:00,,0834.4,5.01,0.00,23.0,21.4,00.0,31.4,24.6,15.7,0000.0,0003.28,0008.39,0001.89
2023-04-09 13:02:00,,0834.5,5.02,0.00,23.0,21.3,00.0,31.4,24.5,15.8,0000.0,0003.27,0008.76,0001.90
2023-04-09 13:03:00,,0834.5,4.99,0.00,23.0,21.3,00.0,31.4,24.4,15.8,0000.0,0003.29,0009.55,0001.91
2023-04-09 13:04:00,,0834.3,4.99,0.00,23.0,21.3,00.0,31.4,24.4,15.8,0000.0,0003.29,0009.55,0001.91
2023-04-09 13:05:00,,0834.3,5.01,0.00,23.0,21.2,00.0,31.3,24.5,15.8,0000.0,0003.28,0009.38,0001.90
2023-04-09 13:06:00,,0834.6,5.01,0.00,23.0,21.2,00.0,31.3,24.5,15.8,0000.0,0003.28,0009.08,0001.89
2023-04-09 13:07:00,,0834.6,5.01,0.00,23.0,21.2,00.0,31.3,24.4,15.8,0000.0,0003.28,0009.01,0001.88
2023-04-09 13:08:00,,0834.8,4.99,0.00,23.0,21.2,00.0,31.3,24.4,15.8,0000.0,0003.30,0008.99,0001.90
2023-04-09 13:09:00,,0834.3,4.99,0.00,22.9,21.2,00.0,31.3,24.4,15.9,0000.0,0003.34,0008.91,0001.90
2023-04-09 13:10:00,,0834.3,5.01,0.00,22.9,21.1,00.0,31.3,24.4,15.9,0000.0,0003.36,0008.71,0001.91
2023-04-09 13:11:00,,0834.4,5.01,0.00,22.9,21.1,00.0,31.3,24.3,16.0,0000.0,0003.33,0008.85,0001.91
2023-04-09 13:12:00,,0834.3,4.99,0.00,22.9,21.1,00.0,31.3,24.2,16.1,0000.0,0003.28,0009.28,0001.92
2023-04-09 13:13:00,,0834.3,4.99,0.00,22.8,21.0,00.0,31.3,24.2,16.0,0000.0,0003.29,0009.26,0001.92
2023-04-09 13:14:00,,0834.3,5.01,0.00,22.8,21.0,00.0,31.2,24.3,16.0,0000.0,0003.33,0008.54,0001.92
2023-04-09 13:15:00,,0834.3,5.00,0.00,22.8,21.0,00.0,31.2,24.3,16.1,0000.0,0003.32,0008.45,0001.91
2023-04-09 13:16:00,,0834.3,4.99,0.00,22.8,21.0,00.0,31.2,24.2,16.2,0000.0,0003.33,0008.51,0001.90
2023-04-09 13:17:00,,0834.3,4.99,0.00,22.8,21.0,00.0,31.2,24.2,16.2,0000.0,0003.34,0008.63,0001.91
2023-04-09 13:18:00,,0834.3,5.00,0.00,22.8,21.0,00.0,31.2,24.2,16.3,0000.0,0003.33,0008.70,0001.92
2023-04-09 13:19:00,,0834.4,4.99,0.00,22.8,21.0,00.0,31.2,24.3,16.3,0000.0,0003.35,0008.81,0001.91
2023-04-09 13:20:00,,0834.6,5.00,0.00,22.8,21.0,00.0,31.2,24.3,16.4,0000.0,0003.35,0008.92,0001.93
2023-04-09 13:21:00,,0834.5,5.00,0.00,22.8,21.0,00.0,31.2,24.3,16.6,0000.0,0003.33,0009.13,0001.93
2023-04-09 13:22:00,,0834.5,5.01,0.00,22.8,21.0,00.0,31.2,24.3,16.5,0000.0,0003.37,0009.29,0001.94
2023-04-09 13:23:00,,0834.5,5.00,0.00,22.8,21.0,00.0,31.1,24.3,16.6,0000.0,0003.34,0008.78,0001.92
2023-04-09 13:24:00,,0834.3,4.99,0.00,22.8,21.0,00.0,31.1,24.3,16.5,0000.0,0003.35,0009.95,0001.91
2023-04-09 13:25:00,,0834.3,4.99,0.00,22.8,21.1,00.0,31.1,24.3,16.5,0000.0,0003.34,0010.81,0001.90
2023-04-09 13:26:00,,0834.3,5.01,0.00,22.8,21.1,00.0,31.1,24.3,16.5,0000.0,0003.39,0011.51,0001.91
2023-04-09 13:27:00,,0834.4,5.00,0.00,22.8,21.1,00.0,31.1,24.3,16.7,0000.0,0003.39,0011.82,0001.93
2023-04-09 13:28:00,,0834.4,4.99,0.00,22.8,21.1,00.0,31.1,24.3,16.8,0000.0,0003.39,0011.72,0001.93
2023-04-09 13:29:00,,0834.3,5.02,0.00,22.8,21.1,00.0,31.1,24.3,16.8,0000.0,0003.40,0011.78,0001.94
2023-04-09 13:30:00,,0834.4,5.00,0.00,22.8,21.1,00.0,31.1,24.4,16.8,0000.0,0003.40,0011.73,0001.92
2023-04-09 13:31:00,,0834.5,4.99,0.00,22.8,21.1,00.0,31.1,24.4,16.7,0000.0,0003.35,0011.59,0001.90
2023-04-09 13:32:00,,0834.5,5.00,0.00,22.8,21.1,00.0,31.1,24.4,16.7,0000.0,0003.37,0011.62,0001.90
2023-04-09 13:33:00,,0834.5,5.00,0.00,22.8,21.1,00.0,31.1,24.4,16.4,0000.0,0003.35,0011.37,0001.90
2023-04-09 13:34:00,,0834.4,5.01,0.00,22.8,21.2,00.0,31.1,24.4,16.4,0000.0,0003.36,0011.65,0001.92
2023-04-09 13:35:00,,0834.4,4.98,0.00,22.8,21.2,00.0,31.1,24.4,16.6,0000.0,0003.35,0010.10,0001.92
2023-04-09 13:36:00,,0834.4,4.99,0.00,22.8,21.2,00.0,31.1,24.3,16.6,0000.0,0003.33,0009.61,0001.92
2023-04-09 13:37:00,,0834.4,5.01,0.00,22.8,21.2,00.0,31.1,24.3,16.6,0000.0,0003.30,0009.11,0001.93
2023-04-09 13:38:00,,0834.5,5.00,0.00,22.8,21.2,00.0,31.1,24.3,16.9,0000.0,0003.30,0009.11,0001.93
2023-04-09 13:39:00,,0834.5,5.01,0.00,22.8,21.2,00.0,31.1,24.4,16.8,0000.0,0003.31,0009.56,0001.92
2023-04-09 13:40:00,,0834.5,4.99,0.00,22.8,21.2,00.0,31.1,24.3,17.5,0000.0,0003.29,0009.56,0001.91
2023-04-09 13:41:00,,0834.5,4.99,0.00,22.8,21.2,00.0,31.1,24.3,17.1,0000.0,0003.28,0009.54,0001.92
2023-04-09 13:42:00,,0834.5,4.99,0.00,22.8,21.2,00.0,31.1,24.3,16.9,0000.0,0003.31,0009.68,0001.92
2023-04-09 13:43:00,,0834.6,4.99,0.00,22.8,21.2,00.0,31.1,24.3,16.8,0000.0,0003.27,0009.28,0001.92
2023-04-09 13:44:00,,0834.5,5.01,0.00,22.8,21.2,00.0,31.1,24.3,16.5,0000.0,0003.24,0009.22,0001.91
2023-04-09 13:45:00,,0834.5,5.01,0.00,22.8,21.2,00.0,31.1,24.3,16.2,0000.0,0003.23,0008.55,0001.89
2023-04-09 13:46:00,,0834.5,5.01,0.00,22.8,21.2,00.0,31.1,24.4,16.2,0000.0,0003.20,0008.49,0001.89
2023-04-09 13:47:00,,0835.1,5.00,0.00,22.8,21.2,00.0,31.1,24.4,16.4,0000.0,0003.19,0008.21,0001.91
2023-04-09 13:48:00,,0835.1,5.00,0.00,22.8,21.2,00.0,31.1,24.4,16.6,0000.0,0003.13,0008.53,0001.91
2023-04-09 13:49:00,,0835.0,5.00,0.00,22.8,21.2,00.0,31.1,24.4,16.3,0000.0,0003.10,0008.46,0001.90
2023-04-09 13:50:00,,0835.1,5.01,0.00,22.8,21.2,00.0,31.1,24.4,16.4,0000.0,0003.12,0008.05,0001.90
2023-04-09 13:51:00,,0835.1,5.00,0.00,22.8,21.2,00.0,31.1,24.4,16.1,0000.0,0003.12,0007.87,0001.90
2023-04-09 13:52:00,,0835.1,5.00,0.00,22.8,21.2,00.0,31.1,24.4,16.2,0000.0,0003.13,0008.03,0001.88
2023-04-09 13:53:00,,0835.0,4.99,0.00,22.8,21.2,00.0,31.1,24.4,16.1,0000.0,0003.12,0008.49,0001.87
2023-04-09 13:54:00,,0834.9,5.00,0.00,22.8,21.2,00.0,31.1,24.4,16.2,0000.0,0003.12,0008.69,0001.87
2023-04-09 13:55:00,,0834.9,5.00,0.00,22.8,21.2,00.0,31.1,24.4,16.4,0000.0,0003.15,0008.68,0001.89
2023-04-09 13:56:00,,0834.8,5.01,0.00,22.8,21.2,00.0,31.1,24.4,16.2,0000.0,0003.16,0008.81,0001.91
2023-04-09 13:57:00,,0834.9,5.00,0.00,22.8,21.2,00.0,31.1,24.4,16.4,0000.0,0003.19,0009.01,0001.92
2023-04-09 13:58:00,,0834.9,4.99,0.00,22.8,21.2,00.0,31.1,24.4,16.4,0000.0,0003.22,0009.33,0001.92
2023-04-09 13:59:00,,0835.1,5.00,0.00,22.8,21.2,00.0,31.1,24.4,16.4,0000.0,0003.25,0008.86,0001.93
